Weather History for Jaipur, India

Change the Weather History Date:

Sunday, October 13, 2013

  Actual Average Record
Temperature  
Mean Temperature 80 °F -  
Max Temperature 88 °F - - ()
Min Temperature 71 °F - - ()
Cooling Degree Days 14    
Growing Degree Days 30 (Base 50)    
Moisture  
Dew Point 71 °F    
Average Humidity 75    
Maximum Humidity 100    
Minimum Humidity 54    
Precipitation  
Precipitation 0.00 in - - ()
Sea Level Pressure  
Sea Level Pressure 29.81 in    
Wind  
Wind Speed 3 mph ()    
Max Wind Speed 7 mph    
Max Gust Speed -    
Visibility 2.0 miles    
Events Thunderstorm    
T = Trace of Precipitation, MM = Missing Value Source: Averaged Metar Reports

Daily Weather History Graph

Daily Weather History Graph

Search for Another Location

Airport:

Trip Planner

Search our weather history database for the weather conditions in past years. The results will help you decide how hot, cold, wet, or windy it might be!

Date:

Astronomy

Oct. 13, 2013 Rise Set
Actual Time 6:25 AM IST 6:00 PM IST
Civil Twilight 6:01 AM IST 6:23 PM IST
Nautical Twilight 5:34 AM IST 6:50 PM IST
Astronomical Twilight 5:07 AM IST 7:17 PM IST
Moon 2:04 PM IST (10/13) 12:36 AM IST (10/13)
Length of Visible Light 12h 22m
Length of Day
11h 35m
Waxing Gibbous, 65% of the Moon is Illuminated
Oct 13
Waxing Gibbous
Oct 19
Full
Oct 27
Last Quarter
Nov 3
New
Nov 10
First Quarter

Hourly Weather History & Observations

Time (IST) Temp. Heat Index Dew Point Humidity Pressure Visibility Wind Dir Wind Speed Gust Speed Precip Events Conditions
12:00 AM 73.4 °F - 69.8 °F 88% 29.83 in 2.2 mi East 4.6 mph - N/A   Scattered Clouds
1:00 AM 73.4 °F - 69.8 °F 88% 29.83 in 2.2 mi Variable 2.3 mph - N/A   Scattered Clouds
2:30 AM 75 °F - 70 °F 80% 29.76 in 1 mi ENE 3.5 mph - -  
5:00 AM 75.2 °F - 69.8 °F 83% 29.80 in 2.2 mi Calm Calm - N/A   Scattered Clouds
7:00 AM 71.6 °F - 71.6 °F 100% 29.86 in 1.9 mi Variable 2.3 mph - N/A Thunderstorm Thunderstorm
7:30 AM 73.4 °F - 71.6 °F 94% 29.86 in 1.9 mi Calm Calm - N/A Thunderstorm Thunderstorm
8:00 AM 75.2 °F - 69.8 °F 83% 29.86 in 1.9 mi Calm Calm - N/A   Scattered Clouds
9:00 AM 77.0 °F - 69.8 °F 78% 29.89 in 2.2 mi Variable 3.5 mph - N/A   Mostly Cloudy
10:00 AM 80.6 °F 85.4 °F 73.4 °F 79% 29.89 in 2.2 mi East 4.6 mph - N/A   Haze
11:00 AM 82.4 °F 88.2 °F 73.4 °F 74% 29.89 in 2.2 mi East 5.8 mph - N/A   Haze
12:00 PM 82.4 °F 88.2 °F 73.4 °F 74% 29.86 in 2.5 mi East 6.9 mph - N/A   Haze
1:00 PM 84.2 °F 89.6 °F 71.6 °F 66% 29.83 in 2.5 mi East 5.8 mph - N/A   Haze
2:00 PM 86.0 °F 90.4 °F 69.8 °F 58% 29.80 in 2.5 mi Variable 3.5 mph - N/A   Haze
2:30 PM 85 °F - 71 °F 54% 29.71 in 2 mi ENE 5.8 mph - -   Haze
3:00 PM 84.2 °F 89.6 °F 71.6 °F 66% 29.77 in 2.5 mi Variable 5.8 mph - N/A   Haze
4:00 PM 86.0 °F 90.4 °F 69.8 °F 58% 29.77 in 2.5 mi Variable 6.9 mph - N/A   Haze
5:00 PM 84.2 °F 89.6 °F 71.6 °F 66% 29.77 in 2.5 mi NE 5.8 mph - N/A   Haze
5:30 PM 84 °F - 71 °F 57% 29.70 in 2 mi NE 4.6 mph - -   Haze
6:00 PM 82.4 °F 87.2 °F 71.6 °F 70% 29.77 in 2.5 mi NE 4.6 mph - N/A   Haze
7:00 PM 80.6 °F 84.6 °F 71.6 °F 74% 29.80 in 1.9 mi Calm Calm - N/A   Haze
8:00 PM 78.8 °F - 71.6 °F 78% 29.83 in 1.9 mi Calm Calm - N/A   Haze
8:30 PM 79 °F - 72 °F 72% 29.75 in 1 mi Calm Calm - -   Haze
9:00 PM 78.8 °F - 71.6 °F 78% 29.83 in 1.9 mi Calm Calm - N/A   Haze
10:00 PM 77.0 °F - 71.6 °F 83% 29.86 in 1.9 mi Calm Calm - N/A   Haze
11:00 PM 77.0 °F - 71.6 °F 83% 29.86 in 1.9 mi Calm Calm - N/A   Haze
11:30 PM 77 °F - 71 °F 77% 29.78 in 1 mi Calm Calm - -   Haze